Content
SEND FEEDBACK

Daily
Averages
Monthly
Summary
Italy

SAN DONATO MILANESE, ITALY


Home > Europe > Italy
Elevation: 338 feet     Latitude: 45 25N     Longitude: 009 16E

WEATHER
 
SELECT A DAY
Number of Records: 298,787;   Date Range: 7/1/96 - 9/22/14
 
SHARE

PRINT THIS DATA

[ ← Previous Day ]
WEATHER ALMANAC - FEBRUARY 13, 2013
[ Next Day → ]
[ °C ]   °F
Weather ElementAverageHighLow
Temperature30.5 °F33.8 °F (2:50 pm)26.6 °F (9:20 pm)
Dewpoint30.3 °F32 °F (12:50 am)26.6 °F (9:20 pm)
Humidity99.3 %100 % (12:50 am)93 % (3:50 am)
Barometer29.89 in30.01 in (10:20 pm)29.83 in (12:50 am)
Wind Speed4.6 mph8.1 mph (1:20 pm)
Weather ElementAverage
Visibility0.4 mi
Wind DirectionSSE (171.7 °)

Weather ElementTotal
Precipitation---
Heating Degree Days34.8 (Base 65)
Averaged from 47 records on February 13, 2013
WEATHER CONDITIONS BREAKOUT
WIND DIRECTION BREAKOUT
WEATHER BY HOUR - FEBRUARY 13, 2013
[ °C ]   °F
Local TimeTemperatureDewpointHumidityBarometerVisibilityWind DirectionWind SpeedGust SpeedPrecipitationEventsConditions
12:50 AM32.0 °F32.0 °F100 %29.83 in1.0 miWSW (240°)5.8 mphScattered Clouds
1:20 AM32.0 °F32.0 °F100 %29.83 in1.6 miSW (230°)5.8 mphScattered Clouds
1:50 AM32.0 °F32.0 °F100 %29.83 in1.6 miSW (230°)5.8 mphScattered Clouds
2:20 AM32.0 °F32.0 °F100 %29.83 in1.6 miWSW (240°)6.9 mphScattered Clouds
2:50 AM32.0 °F32.0 °F100 %29.83 in1.6 miWSW (250°)4.6 mphScattered Clouds
3:20 AM32.0 °F32.0 °F100 %29.83 in1.6 miSW (230°)5.8 mphScattered Clouds
3:50 AM32.0 °F30.2 °F93 %29.83 in1.6 miSW (220°)6.9 mphScattered Clouds
4:20 AM30.2 °F30.2 °F100 %29.83 in0.2 miWSW (240°)5.8 mphFogLight Freezing Fog
4:50 AM30.2 °F30.2 °F100 %29.83 in0.1 miSW (230°)4.6 mphFogLight Freezing Fog
5:20 AM30.2 °F30.2 °F100 %29.83 in0.1 miWSW (240°)4.6 mphFogLight Freezing Fog
5:50 AM30.2 °F30.2 °F100 %29.83 in0.1 miSW (230°)4.6 mphFogLight Freezing Fog
6:20 AM30.2 °F30.2 °F100 %29.83 in0.1 miWSW (240°)4.6 mphFogLight Freezing Fog
6:50 AM30.2 °F30.2 °F100 %29.86 in0.1 miSW (220°)3.5 mphFogLight Freezing Fog
7:20 AM30.2 °F30.2 °F100 %29.86 in0.1 miWSW (240°)4.6 mphFogLight Freezing Fog
7:50 AM30.2 °F30.2 °F100 %29.86 in0.1 miWSW (250°)5.8 mphFogLight Freezing Fog
8:20 AM30.2 °F30.2 °F100 %29.86 in0.1 miWest (270°)4.6 mphFogLight Freezing Fog
8:50 AM30.2 °F30.2 °F100 %29.89 in0.1 miWest (280°)4.6 mphFogLight Freezing Fog
9:20 AM30.2 °F30.2 °F100 %29.89 in0.2 miWest (270°)3.5 mphFogLight Freezing Fog
9:50 AM30.2 °F30.2 °F100 %29.89 in0.2 miWest (270°)4.6 mphFogLight Freezing Fog
10:20 AM30.2 °F30.2 °F100 %29.89 in0.2 miWest (270°)5.8 mphFogLight Freezing Fog
10:50 AM32.0 °F32.0 °F100 %29.89 in0.2 miWest (260°)4.6 mphFogLight Freezing Fog
11:20 AM32.0 °F32.0 °F100 %29.89 in0.4 miVariable2.3 mphFogLight Freezing Fog
11:50 AM32.0 °F32.0 °F100 %29.92 in0.4 miSouth (190°)3.5 mphFogFog
12:20 PM32.0 °F32.0 °F100 %29.89 in0.4 miSW (230°)5.8 mphFogLight Freezing Fog
12:50 PM32.0 °F32.0 °F100 %29.89 in0.4 miSSW (210°)4.6 mphFogLight Freezing Fog
1:20 PM32.0 °F32.0 °F100 %29.89 in0.4 miWSW (240°)8.1 mphFogLight Freezing Fog
1:50 PM32.0 °F32.0 °F100 %29.89 in0.4 miWSW (240°)6.9 mphFogLight Freezing Fog
2:20 PM32.0 °F32.0 °F100 %29.89 in0.6 miSSW (210°)5.8 mphFogFog
2:50 PM33.8 °F32.0 °F93 %29.89 in0.6 miSW (220°)5.8 mphFogFog
3:20 PM32.0 °F32.0 °F100 %29.89 in0.7 miSW (230°)5.8 mphMostly Cloudy
3:50 PM33.8 °F32.0 °F93 %29.89 in0.7 miSW (230°)5.8 mphMostly Cloudy
4:20 PM32.0 °F30.2 °F93 %29.89 in0.7 miVariable2.3 mphMostly Cloudy
4:50 PM32.0 °F32.0 °F100 %29.89 in0.9 miSouth (190°)3.5 mphMostly Cloudy
5:20 PM32.0 °F30.2 °F93 %29.92 in0.2 miESE (120°)4.6 mphFogLight Freezing Fog
5:50 PM30.2 °F30.2 °F100 %29.89 in0.1 miVariable1.2 mphFogLight Freezing Fog
6:20 PM30.2 °F30.2 °F100 %29.92 in0.1 miEast (80°)3.5 mphFogLight Freezing Fog
6:50 PM28.4 °F28.4 °F100 %29.92 in0.1 miEast (100°)5.8 mphFogLight Freezing Fog
7:20 PM28.4 °F28.4 °F100 %29.95 in0.1 miEast (100°)4.6 mphFogLight Freezing Fog
7:50 PM28.4 °F28.4 °F100 %29.95 in0.1 miEast (90°)3.5 mphFogLight Freezing Fog
8:20 PM28.4 °F28.4 °F100 %29.95 in0.1 miSE (130°)3.5 mphFogLight Freezing Fog
8:50 PM28.4 °F28.4 °F100 %29.98 in0.1 miEast (90°)4.6 mphFogLight Freezing Fog
9:20 PM26.6 °F26.6 °F100 %29.98 in0.1 miVariable2.3 mphFogLight Freezing Fog
9:50 PM28.4 °F28.4 °F100 %29.98 in0.1 miVariable2.3 mphFogLight Freezing Fog
10:20 PM28.4 °F28.4 °F100 %30.01 in0.1 miVariable2.3 mphFogLight Freezing Fog
10:50 PM26.6 °F26.6 °F100 %30.01 in0.1 miVariable2.3 mphFogLight Freezing Fog
11:20 PM26.6 °F26.6 °F100 %30.01 in0.1 miNNE (20°)3.5 mphFogLight Freezing Fog
11:50 PM26.6 °F26.6 °F100 %30.01 in0.1 miVariable2.3 mphFogLight Freezing Fog
Hourly data recorded from LIML, located miles away from San Donato Milanese, Italy







STORIES FROM OUR PARTNERS